When you browse on this site, cookies collect data to enhance your experience and personalize the content and advertising you see.
Visit our Privacy Policy to learn more. By continuing to use the site, you agree to this use of cookies and data.
  • In Austria
  • List of Countries
  • For 7 days
  • Water Temperature
  • Weather Map
  • News
  • Weather Widgets
  • user-avatar
    Login

    Hourly Weather Kalgoorlie

    Today, 21 February, Friday

    Time Temperature Precipitation Wind Pressure Humidity
    00:00 +21°C° 0 mm 8 mps 731 mmHg 51%
    01:00 +20°C° 0 mm 8 mps 731 mmHg 57%
    02:00 +18°C° 0 mm 7 mps 731 mmHg 64%
    03:00 +17°C° 0 mm 7 mps 731 mmHg 66%
    04:00 +17°C° 0 mm 7 mps 732 mmHg 68%
    05:00 +16°C° 0 mm 6 mps 732 mmHg 69%
    06:00 +17°C° 0 mm 6 mps 732 mmHg 67%
    07:00 +17°C° 0 mm 6 mps 732 mmHg 64%
    08:00 +20°C° 0 mm 6 mps 733 mmHg 58%
    09:00 +22°C° 0 mm 6 mps 733 mmHg 48%
    10:00 +24°C° 0 mm 6 mps 733 mmHg 39%
    11:00 +27°C° 0 mm 6 mps 732 mmHg 30%
    12:00 +28°C° 0 mm 5 mps 732 mmHg 28%
    13:00 +30°C° 0 mm 5 mps 731 mmHg 26%
    14:00 +32°C° 0 mm 5 mps 730 mmHg 25%
    21:00 +30°C° 0 mm 4 mps 728 mmHg 32%
    22:00 +28°C° 0 mm 7 mps 730 mmHg 33%
    23:00 +27°C° 0 mm 7 mps 730 mmHg 33%

    Tomorrow, 22 February, Saturday

    Time Temperature Precipitation Wind Pressure Humidity
    00:00 +26°C° 0.1 mm 7 mps 730 mmHg 37%
    01:00 +24°C° 0.1 mm 7 mps 730 mmHg 41%
    02:00 +23°C° 0.1 mm 8 mps 730 mmHg 45%
    03:00 +22°C° 0 mm 8 mps 730 mmHg 49%
    04:00 +22°C° 0 mm 7 mps 730 mmHg 53%
    05:00 +21°C° 0 mm 7 mps 730 mmHg 56%
    06:00 +22°C° 0 mm 7 mps 730 mmHg 55%
    07:00 +22°C° 0 mm 7 mps 730 mmHg 54%
    08:00 +22°C° 0 mm 7 mps 730 mmHg 53%
    09:00 +23°C° 0 mm 7 mps 730 mmHg 50%
    10:00 +24°C° 0 mm 7 mps 730 mmHg 46%
    11:00 +26°C° 0 mm 8 mps 730 mmHg 43%
    12:00 +27°C° 0 mm 6 mps 730 mmHg 41%
    13:00 +27°C° 0 mm 4 mps 729 mmHg 39%
    14:00 +28°C° 0 mm 2 mps 729 mmHg 37%
    15:00 +28°C° 0 mm 2 mps 729 mmHg 38%
    16:00 +27°C° 0 mm 2 mps 728 mmHg 40%
    17:00 +27°C° 0 mm 2 mps 728 mmHg 41%
    18:00 +26°C° 0.2 mm 3 mps 728 mmHg 45%
    19:00 +26°C° 0.2 mm 4 mps 728 mmHg 48%
    20:00 +25°C° 0.2 mm 5 mps 728 mmHg 51%
    21:00 +25°C° 0 mm 4 mps 728 mmHg 53%
    22:00 +23°C° 0 mm 4 mps 728 mmHg 55%
    23:00 +24°C° 0 mm 3 mps 728 mmHg 57%

    Day after tomorrow, 23 February, Sunday

    Time Temperature Precipitation Wind Pressure Humidity
    00:00 +24°C° 0 mm 3 mps 728 mmHg 63%
    01:00 +22°C° 0 mm 4 mps 728 mmHg 68%
    02:00 +22°C° 0 mm 4 mps 727 mmHg 73%
    03:00 +22°C° 0 mm 3 mps 728 mmHg 74%
    04:00 +22°C° 0 mm 3 mps 728 mmHg 75%
    05:00 +23°C° 0 mm 2 mps 728 mmHg 76%
    06:00 +24°C° 0.2 mm 2 mps 728 mmHg 71%
    07:00 +25°C° 0.2 mm 3 mps 729 mmHg 67%
    08:00 +26°C° 0.2 mm 3 mps 729 mmHg 62%
    09:00 +27°C° 0.2 mm 3 mps 729 mmHg 54%
    10:00 +29°C° 0.2 mm 2 mps 729 mmHg 47%
    11:00 +30°C° 0.2 mm 2 mps 729 mmHg 40%
    12:00 +31°C° 0 mm 2 mps 728 mmHg 37%
    13:00 +32°C° 0 mm 1 mps 727 mmHg 35%
    14:00 +34°C° 0 mm 1 mps 727 mmHg 32%
    15:00 +34°C° 0 mm 1 mps 727 mmHg 32%
    16:00 +34°C° 0 mm 1 mps 726 mmHg 31%
    17:00 +34°C° 0 mm 1 mps 726 mmHg 30%
    18:00 +35°C° 0.1 mm 2 mps 726 mmHg 32%
    19:00 +34°C° 0.1 mm 3 mps 727 mmHg 35%
    20:00 +33°C° 0.1 mm 4 mps 727 mmHg 37%
    21:00 +32°C° 0.1 mm 5 mps 727 mmHg 38%
    22:00 +30°C° 0.1 mm 6 mps 728 mmHg 38%
    23:00 +29°C° 0.1 mm 7 mps 728 mmHg 39%

    24 February, Monday

    Time Temperature Precipitation Wind Pressure Humidity
    00:00 +28°C° 0.2 mm 8 mps 728 mmHg 44%
    01:00 +27°C° 0.2 mm 8 mps 728 mmHg 49%
    02:00 +24°C° 0.2 mm 9 mps 728 mmHg 54%
    03:00 +24°C° 0.2 mm 8 mps 728 mmHg 55%
    04:00 +23°C° 0.2 mm 8 mps 728 mmHg 56%
    05:00 +23°C° 0.2 mm 8 mps 729 mmHg 57%
    06:00 +23°C° 0 mm 8 mps 729 mmHg 55%
    07:00 +23°C° 0 mm 8 mps 729 mmHg 53%
    08:00 +24°C° 0 mm 8 mps 730 mmHg 51%
    09:00 +26°C° 0 mm 7 mps 730 mmHg 46%
    10:00 +28°C° 0 mm 6 mps 730 mmHg 41%
    11:00 +30°C° 0 mm 6 mps 730 mmHg 37%
    12:00 +33°C° 0 mm 5 mps 729 mmHg 33%
    13:00 +35°C° 0 mm 5 mps 729 mmHg 29%
    14:00 +37°C° 0 mm 4 mps 728 mmHg 24%
    15:00 +37°C° 0 mm 5 mps 728 mmHg 24%
    16:00 +38°C° 0 mm 6 mps 728 mmHg 23%
    17:00 +36°C° 0 mm 7 mps 728 mmHg 23%
    18:00 +35°C° 0 mm 7 mps 728 mmHg 26%
    19:00 +33°C° 0 mm 8 mps 728 mmHg 29%
    20:00 +31°C° 0 mm 8 mps 728 mmHg 32%
    21:00 +29°C° 0.1 mm 7 mps 728 mmHg 34%
    22:00 +28°C° 0.1 mm 7 mps 729 mmHg 37%
    23:00 +28°C° 0.1 mm 6 mps 729 mmHg 39%

    25 February, Tuesday

    Time Temperature Precipitation Wind Pressure Humidity
    00:00 +27°C° 0.5 mm 4 mps 729 mmHg 45%
    01:00 +26°C° 0.5 mm 3 mps 729 mmHg 51%
    02:00 +25°C° 0.5 mm 2 mps 729 mmHg 58%
    03:00 +25°C° 0 mm 3 mps 729 mmHg 60%
    04:00 +25°C° 0 mm 5 mps 729 mmHg 62%
    05:00 +23°C° 0 mm 7 mps 729 mmHg 64%
    06:00 +25°C° 0 mm 5 mps 729 mmHg 62%
    07:00 +25°C° 0 mm 4 mps 729 mmHg 60%
    08:00 +26°C° 0 mm 3 mps 730 mmHg 57%
    09:00 +27°C° 0 mm 3 mps 730 mmHg 53%
    10:00 +28°C° 0 mm 4 mps 730 mmHg 49%
    11:00 +29°C° 0 mm 4 mps 730 mmHg 45%
    12:00 +30°C° 0 mm 5 mps 730 mmHg 41%
    13:00 +33°C° 0 mm 5 mps 729 mmHg 38%
    14:00 +34°C° 0 mm 6 mps 729 mmHg 34%
    15:00 +34°C° 0 mm 6 mps 729 mmHg 34%
    16:00 +34°C° 0 mm 6 mps 729 mmHg 34%
    17:00 +34°C° 0 mm 7 mps 728 mmHg 34%
    18:00 +33°C° 0 mm 6 mps 729 mmHg 35%
    19:00 +32°C° 0 mm 6 mps 729 mmHg 37%
    20:00 +30°C° 0 mm 5 mps 730 mmHg 38%
    21:00 +29°C° 0 mm 6 mps 730 mmHg 45%
    22:00 +27°C° 0 mm 7 mps 730 mmHg 51%
    23:00 +26°C° 0 mm 8 mps 730 mmHg 58%

    26 February, Wednesday

    Time Temperature Precipitation Wind Pressure Humidity
    00:00 +24°C° 0 mm 8 mps 730 mmHg 60%
    01:00 +23°C° 0 mm 7 mps 730 mmHg 62%
    02:00 +22°C° 0 mm 7 mps 730 mmHg 64%
    03:00 +22°C° 0 mm 7 mps 731 mmHg 66%
    04:00 +21°C° 0 mm 8 mps 731 mmHg 68%
    05:00 +20°C° 0 mm 8 mps 731 mmHg 70%
    06:00 +21°C° 0 mm 8 mps 731 mmHg 69%
    07:00 +21°C° 0 mm 8 mps 731 mmHg 68%
    08:00 +22°C° 0 mm 8 mps 731 mmHg 66%
    09:00 +26°C° 0 mm 8 mps 731 mmHg 57%
    10:00 +28°C° 0 mm 8 mps 731 mmHg 47%
    11:00 +32°C° 0 mm 8 mps 731 mmHg 38%
    12:00 +33°C° 0 mm 8 mps 730 mmHg 34%
    13:00 +35°C° 0 mm 7 mps 730 mmHg 30%
    14:00 +38°C° 0 mm 7 mps 729 mmHg 26%
    15:00 +38°C° 0 mm 7 mps 729 mmHg 25%
    16:00 +38°C° 0 mm 7 mps 729 mmHg 25%
    17:00 +38°C° 0 mm 6 mps 728 mmHg 24%
    18:00 +36°C° 0 mm 6 mps 729 mmHg 26%
    19:00 +35°C° 0 mm 7 mps 729 mmHg 28%
    20:00 +34°C° 0 mm 7 mps 729 mmHg 30%
    21:00 +32°C° 0 mm 8 mps 729 mmHg 36%
    22:00 +29°C° 0 mm 9 mps 729 mmHg 43%
    23:00 +27°C° 0 mm 10 mps 729 mmHg 49%
    Show more